Location: Zlin
(49.2330°N, 17.6670°E)
Time: 02:23:06
(UTC+02:00)

ISS - Visible Passes

Search period start: 30 May 2015 00:00
Search period end: 09 June 2015 00:00
Orbit: 399 x 404 km, 51.6° (Epoch: 29 May)

Date Brightness Start Highest point End Pass type
(mag) Time Alt. Az. Time Alt. Az. Time Alt. Az.
30 May -2.8 01:12:42 14° W 01:15:26 60° N 01:18:41 10° ENE visible
30 May -2.8 02:48:51 10° WNW 02:52:05 62° N 02:55:20 10° E visible
30 May -2.6 22:45:47 30° SSE 22:45:53 30° SE 22:48:48 10° E visible
31 May -3.2 00:18:53 10° WSW 00:22:07 74° NNW 00:25:24 10° ENE visible
31 May -2.6 01:55:32 10° WNW 01:58:45 54° N 02:01:59 10° E visible
31 May -3.4 03:32:01 10° WNW 03:35:16 67° SSW 03:38:31 10° ESE visible
31 May -1.9 21:50:27 10° S 21:52:47 19° SE 21:55:11 10° E visible
31 May -3.5 23:25:36 10° WSW 23:28:51 82° SSE 23:32:07 10° ENE visible
01 Jun -2.6 01:02:12 10° W 01:05:24 53° N 01:08:37 10° ENE visible
01 Jun -3.4 02:38:44 10° WNW 02:42:00 85° NNE 02:45:17 10° ESE visible
01 Jun -3.3 22:32:26 10° SW 22:35:36 54° SSE 22:38:48 10° ENE visible
02 Jun -2.7 00:08:50 10° W 00:12:02 57° N 00:15:17 10° ENE visible
02 Jun -3.0 01:45:26 10° WNW 01:48:41 66° NNE 01:51:57 10° E visible
02 Jun -2.9 03:21:57 10° W 03:25:02 38° SSW 03:28:04 10° SE visible
02 Jun -2.7 21:39:27 10° SSW 21:42:25 34° SSE 21:45:25 10° E visible
02 Jun -3.1 23:15:27 10° W 23:18:42 70° NNW 23:21:57 10° ENE visible
03 Jun -2.7 00:52:07 10° WNW 00:55:20 56° N 00:58:33 10° E visible
03 Jun -3.4 02:28:35 10° WNW 02:31:48 61° SSW 02:35:02 10° SE visible
03 Jun -1.5 04:06:06 10° WSW 04:07:44 13° SW 04:09:17 10° SSW visible
03 Jun -3.4 22:22:07 10° WSW 22:25:22 88° SSE 22:28:39 10° ENE visible
03 Jun -2.5 23:58:45 10° WNW 00:01:57 53° N 00:05:09 10° ENE visible
04 Jun -3.5 01:35:15 10° WNW 01:38:32 89° SSW 01:41:48 10° ESE visible
04 Jun -2.1 03:12:04 10° W 03:14:38 21° SW 03:17:11 10° SSE visible
04 Jun -3.3 21:28:53 10° SW 21:32:05 60° SSE 21:35:19 10° ENE visible
04 Jun -2.6 23:05:21 10° W 23:08:33 56° N 23:11:47 10° ENE visible
05 Jun -3.1 00:41:56 10° WNW 00:45:12 69° NNE 00:48:17 11° E visible
05 Jun -2.4 02:18:28 10° W 02:20:43 30° WSW 02:20:43 30° WSW visible
05 Jun -2.9 22:11:56 10° W 22:15:10 66° NNW 22:18:25 10° ENE visible
05 Jun -2.7 23:48:35 10° WNW 23:51:48 57° N 23:55:02 10° E visible
06 Jun -3.1 01:25:03 10° WNW 01:27:51 50° WSW 01:27:51 50° WSW visible
06 Jun -2.5 22:55:12 10° WNW 22:58:24 53° N 23:01:36 10° E visible
07 Jun -3.5 00:31:41 10° WNW 00:34:58 82° SSW 00:35:37 53° ESE visible
07 Jun -2.6 22:01:46 10° W 22:04:59 54° N 22:08:11 10° ENE visible
07 Jun -3.2 23:38:20 10° WNW 23:41:36 73° NNE 23:43:37 21° E visible
08 Jun -1.4 01:14:55 10° W 01:16:10 19° W 01:16:10 19° W visible
08 Jun -2.8 22:44:58 10° WNW 22:48:11 59° N 22:51:25 10° E visible
